• In Italy
  • List of Countries
  • For 7 days
  • Water Temperature
  • Satellite Maps
  • Weather Map
  • Weather Widgets
  • user-avatar
    Login

    Hourly Weather Pune

    Today, 21 September, Thursday

    Time Temperature Precipitation Wind Pressure Humidity
    00:00 +24°C° 0.9 mm 3 mps 708 mmHg 93%
    01:00 +24°C° 0.9 mm 3 mps 707 mmHg 93%
    02:00 +22°C° 0.9 mm 3 mps 707 mmHg 93%
    03:00 +22°C° 1.2 mm 3 mps 707 mmHg 94%
    04:00 +22°C° 1.2 mm 3 mps 707 mmHg 94%
    05:00 +22°C° 1.2 mm 3 mps 707 mmHg 94%
    06:00 +22°C° 0.6 mm 3 mps 707 mmHg 92%
    07:00 +24°C° 0.6 mm 2 mps 708 mmHg 91%
    08:00 +24°C° 0.6 mm 2 mps 708 mmHg 89%
    09:00 +25°C° 0.5 mm 2 mps 709 mmHg 86%
    10:00 +25°C° 0.5 mm 3 mps 709 mmHg 83%
    11:00 +26°C° 0.5 mm 3 mps 709 mmHg 80%
    12:00 +26°C° 0.4 mm 3 mps 708 mmHg 80%
    13:00 +26°C° 0.4 mm 3 mps 708 mmHg 79%
    14:00 +26°C° 0.4 mm 3 mps 707 mmHg 79%
    15:00 +26°C° 0.3 mm 3 mps 707 mmHg 82%
    16:00 +26°C° 0.3 mm 3 mps 707 mmHg 84%
    17:00 +25°C° 0.3 mm 3 mps 707 mmHg 86%
    18:00 +25°C° 0.1 mm 3 mps 708 mmHg 88%
    19:00 +24°C° 0.1 mm 2 mps 708 mmHg 90%
    20:00 +24°C° 0.1 mm 2 mps 709 mmHg 92%
    21:00 +24°C° 0.2 mm 2 mps 709 mmHg 92%
    22:00 +24°C° 0.2 mm 2 mps 709 mmHg 92%
    23:00 +24°C° 0.2 mm 2 mps 709 mmHg 92%

    Tomorrow, 22 September, Friday

    Time Temperature Precipitation Wind Pressure Humidity
    00:00 +23°C° 0.1 mm 2 mps 709 mmHg 92%
    01:00 +23°C° 0.1 mm 1 mps 708 mmHg 92%
    02:00 +23°C° 0.1 mm 1 mps 708 mmHg 92%
    03:00 +23°C° 0.1 mm 1 mps 708 mmHg 92%
    04:00 +23°C° 0.1 mm 1 mps 708 mmHg 92%
    05:00 +23°C° 0.1 mm 1 mps 708 mmHg 92%
    06:00 +24°C° 0 mm 2 mps 709 mmHg 89%
    07:00 +25°C° 0 mm 2 mps 709 mmHg 86%
    08:00 +25°C° 0 mm 2 mps 710 mmHg 83%
    09:00 +27°C° 0 mm 2 mps 710 mmHg 78%
    10:00 +28°C° 0 mm 3 mps 710 mmHg 72%
    11:00 +29°C° 0 mm 3 mps 710 mmHg 66%
    12:00 +29°C° 0.2 mm 3 mps 710 mmHg 66%
    13:00 +30°C° 0.2 mm 4 mps 709 mmHg 66%
    14:00 +30°C° 0.2 mm 4 mps 709 mmHg 65%
    15:00 +29°C° 0.4 mm 4 mps 709 mmHg 70%
    16:00 +28°C° 0.4 mm 4 mps 709 mmHg 74%
    17:00 +27°C° 0.4 mm 4 mps 709 mmHg 79%
    18:00 +26°C° 0.2 mm 3 mps 709 mmHg 82%
    19:00 +26°C° 0.2 mm 3 mps 709 mmHg 86%
    20:00 +25°C° 0.2 mm 2 mps 710 mmHg 90%
    21:00 +24°C° 0 mm 2 mps 710 mmHg 90%
    22:00 +24°C° 0 mm 2 mps 710 mmHg 91%
    23:00 +24°C° 0 mm 1 mps 710 mmHg 91%

    Day after tomorrow, 23 September, Saturday

    Time Temperature Precipitation Wind Pressure Humidity
    00:00 +23°C° 0 mm 1 mps 710 mmHg 91%
    01:00 +23°C° 0 mm 1 mps 709 mmHg 90%
    02:00 +23°C° 0 mm 1 mps 709 mmHg 89%
    03:00 +23°C° 0 mm 1 mps 709 mmHg 89%
    04:00 +23°C° 0 mm 1 mps 709 mmHg 88%
    05:00 +23°C° 0 mm 1 mps 709 mmHg 87%
    06:00 +24°C° 0 mm 1 mps 710 mmHg 83%
    07:00 +25°C° 0 mm 1 mps 710 mmHg 79%
    08:00 +26°C° 0 mm 1 mps 711 mmHg 75%
    09:00 +27°C° 0 mm 2 mps 711 mmHg 70%
    10:00 +28°C° 0 mm 2 mps 711 mmHg 64%
    11:00 +30°C° 0 mm 2 mps 712 mmHg 59%
    12:00 +30°C° 0.1 mm 3 mps 711 mmHg 59%
    13:00 +30°C° 0.1 mm 3 mps 710 mmHg 60%
    14:00 +31°C° 0.1 mm 3 mps 710 mmHg 60%
    15:00 +30°C° 0.5 mm 3 mps 709 mmHg 66%
    16:00 +29°C° 0.5 mm 4 mps 709 mmHg 71%
    17:00 +28°C° 0.5 mm 4 mps 709 mmHg 77%
    18:00 +27°C° 0.4 mm 3 mps 710 mmHg 81%
    19:00 +26°C° 0.4 mm 3 mps 710 mmHg 85%
    20:00 +25°C° 0.4 mm 2 mps 711 mmHg 89%
    21:00 +25°C° 0 mm 2 mps 711 mmHg 90%
    22:00 +24°C° 0 mm 2 mps 711 mmHg 91%
    23:00 +24°C° 0 mm 1 mps 711 mmHg 92%

    24 September, Sunday

    Time Temperature Precipitation Wind Pressure Humidity
    00:00 +24°C° 0 mm 1 mps 710 mmHg 92%
    01:00 +24°C° 0 mm 1 mps 710 mmHg 92%
    02:00 +23°C° 0 mm 1 mps 709 mmHg 92%
    03:00 +23°C° 0 mm 1 mps 709 mmHg 92%
    04:00 +23°C° 0 mm 1 mps 709 mmHg 91%
    05:00 +23°C° 0 mm 1 mps 710 mmHg 91%
    06:00 +24°C° 0 mm 1 mps 710 mmHg 87%
    07:00 +25°C° 0 mm 1 mps 711 mmHg 82%
    08:00 +26°C° 0 mm 1 mps 711 mmHg 78%
    09:00 +27°C° 0 mm 1 mps 711 mmHg 73%
    10:00 +29°C° 0 mm 2 mps 711 mmHg 67%
    11:00 +30°C° 0 mm 2 mps 711 mmHg 62%
    12:00 +30°C° 0.1 mm 3 mps 711 mmHg 62%
    13:00 +31°C° 0.1 mm 3 mps 710 mmHg 61%
    14:00 +32°C° 0.1 mm 4 mps 709 mmHg 61%
    15:00 +30°C° 0.5 mm 4 mps 709 mmHg 65%
    16:00 +29°C° 0.5 mm 4 mps 709 mmHg 70%
    17:00 +28°C° 0.5 mm 4 mps 709 mmHg 75%
    18:00 +27°C° 0.5 mm 3 mps 710 mmHg 80%
    19:00 +26°C° 0.5 mm 3 mps 710 mmHg 85%
    20:00 +25°C° 0.5 mm 2 mps 710 mmHg 89%
    21:00 +25°C° 0 mm 2 mps 710 mmHg 90%
    22:00 +24°C° 0 mm 2 mps 710 mmHg 91%
    23:00 +24°C° 0 mm 2 mps 710 mmHg 92%

    25 September, Monday

    Time Temperature Precipitation Wind Pressure Humidity
    00:00 +24°C° 0 mm 2 mps 710 mmHg 92%
    01:00 +24°C° 0 mm 2 mps 709 mmHg 93%
    02:00 +24°C° 0 mm 2 mps 709 mmHg 93%
    03:00 +24°C° 0 mm 1 mps 709 mmHg 93%
    04:00 +23°C° 0 mm 1 mps 709 mmHg 93%
    05:00 +23°C° 0 mm 1 mps 709 mmHg 93%
    06:00 +24°C° 0 mm 1 mps 709 mmHg 89%
    07:00 +25°C° 0 mm 1 mps 710 mmHg 86%
    08:00 +26°C° 0 mm 1 mps 710 mmHg 82%
    09:00 +27°C° 0 mm 2 mps 711 mmHg 77%
    10:00 +28°C° 0 mm 2 mps 711 mmHg 71%
    11:00 +30°C° 0 mm 2 mps 711 mmHg 66%
    12:00 +30°C° 0.7 mm 2 mps 710 mmHg 66%
    13:00 +30°C° 0.7 mm 3 mps 709 mmHg 67%
    14:00 +30°C° 0.7 mm 3 mps 708 mmHg 67%
    15:00 +29°C° 1 mm 3 mps 708 mmHg 72%
    16:00 +29°C° 1 mm 4 mps 708 mmHg 76%
    17:00 +28°C° 1 mm 4 mps 708 mmHg 81%
    18:00 +27°C° 0.5 mm 4 mps 709 mmHg 84%
    19:00 +26°C° 0.5 mm 3 mps 709 mmHg 87%
    20:00 +25°C° 0.5 mm 3 mps 709 mmHg 90%
    21:00 +25°C° 0 mm 3 mps 709 mmHg 91%
    22:00 +25°C° 0 mm 2 mps 709 mmHg 92%
    23:00 +24°C° 0 mm 2 mps 709 mmHg 93%

    26 September, Tuesday

    Time Temperature Precipitation Wind Pressure Humidity
    00:00 +24°C° 0 mm 2 mps 709 mmHg 93%
    01:00 +24°C° 0 mm 2 mps 708 mmHg 93%
    02:00 +24°C° 0 mm 2 mps 708 mmHg 94%
    03:00 +24°C° 0 mm 2 mps 708 mmHg 94%
    04:00 +24°C° 0 mm 2 mps 708 mmHg 93%
    05:00 +23°C° 0 mm 2 mps 708 mmHg 93%
    06:00 +24°C° 0 mm 2 mps 709 mmHg 90%
    07:00 +25°C° 0 mm 2 mps 709 mmHg 87%
    08:00 +25°C° 0 mm 2 mps 710 mmHg 84%
    09:00 +27°C° 0 mm 2 mps 710 mmHg 79%
    10:00 +28°C° 0 mm 2 mps 710 mmHg 73%
    11:00 +30°C° 0 mm 2 mps 710 mmHg 68%
    12:00 +30°C° 0.4 mm 2 mps 709 mmHg 67%
    13:00 +30°C° 0.4 mm 3 mps 709 mmHg 67%
    14:00 +30°C° 0.4 mm 3 mps 708 mmHg 67%
    15:00 +29°C° 0.5 mm 3 mps 708 mmHg 71%
    16:00 +29°C° 0.5 mm 3 mps 708 mmHg 75%
    17:00 +28°C° 0.5 mm 4 mps 708 mmHg 79%
    18:00 +27°C° 0.2 mm 3 mps 708 mmHg 82%
    19:00 +26°C° 0.2 mm 3 mps 709 mmHg 86%
    20:00 +25°C° 0.2 mm 3 mps 709 mmHg 89%
    21:00 +25°C° 0 mm 3 mps 709 mmHg 90%
    22:00 +25°C° 0 mm 2 mps 709 mmHg 91%
    23:00 +24°C° 0 mm 2 mps 709 mmHg 92%
    Show more